Date,TemperatureHighF,TemperatureAvgF,TemperatureLowF,DewpointHighF,DewpointAvgF,DewpointLowF,HumidityHigh,HumidityAvg,HumidityLow,PressureMaxIn,PressureMinIn,WindSpeedMaxMPH,WindSpeedAvgMPH,GustSpeedMaxMPH,PrecipitationSumIn
2013-9-1,87.1,74.8,68.4,73.2,70.3,68.0,99,87,61,29.81,29.71,2,0,6,0.00
2013-9-2,88.5,72.4,64.0,72.3,68.2,63.5,99,88,52,29.83,29.68,4,0,8,0.24
2013-9-3,65.1,61.6,31.1,63.3,57.9,-15.7,99,88,12,30.05,29.83,3,0,6,0.00
2013-9-4,82.0,63.6,52.0,61.1,56.5,51.4,99,81,43,30.12,29.99,4,0,8,0.00
2013-9-5,76.3,62.3,50.5,60.5,51.4,39.5,98,72,30,30.27,30.04,4,1,9,0.00
2013-9-6,79.5,57.2,31.1,50.7,44.7,-15.7,99,70,12,30.36,30.15,2,0,4,0.02
2013-9-7,85.1,66.7,47.8,65.3,55.8,47.6,99,72,33,30.16,29.90,2,0,4,0.09
2013-9-8,74.7,66.0,54.7,67.9,60.5,53.3,99,84,52,30.12,29.90,3,0,6,0.00
2013-9-9,75.6,59.7,49.8,68.5,56.0,49.6,99,89,68,30.16,30.01,3,0,5,0.02
2013-9-10,31.1,31.1,31.1,-15.7,-15.7,-15.7,12,12,12,0.00,40.00,6,6,7,0.01
2013-9-11,31.1,31.1,31.1,-15.7,-15.7,-15.7,12,12,12,0.00,40.00,6,6,7,0.01
2013-9-12,31.1,31.1,31.1,-15.7,-15.7,-15.7,12,12,12,0.00,40.00,6,6,7,0.01
2013-9-13,31.1,31.1,31.1,-15.7,-15.7,-15.7,12,12,12,0.00,40.00,6,6,7,0.01
2013-9-14,31.1,31.1,31.1,-15.7,-15.7,-15.7,12,12,12,0.00,40.00,6,6,7,0.01
2013-9-15,67.6,58.3,31.1,99.9,49.8,-15.7,96,73,12,30.11,30.06,57,1,7,0.01
2013-9-16,75.9,58.5,46.6,57.6,53.4,44.6,99,85,46,30.38,30.10,4,1,9,0.07
2013-9-17,76.3,52.8,40.8,47.1,42.2,36.8,99,73,25,30.51,30.29,2,0,4,0.00
2013-9-18,80.2,56.0,40.8,54.9,48.6,40.6,99,80,41,30.34,30.11,2,0,4,0.00
2013-9-19,83.7,62.8,50.9,62.5,56.5,50.4,98,83,46,30.17,30.00,3,0,5,0.00
2013-9-20,78.4,66.9,56.5,69.9,63.6,56.2,99,90,74,30.06,29.79,2,0,4,0.00
2013-9-21,69.3,62.5,54.0,67.5,61.8,53.1,99,97,91,29.80,29.67,2,0,6,0.87
2013-9-22,77.4,53.5,50.9,72.8,51.5,49.2,99,93,75,30.06,29.80,4,0,7,0.07
2013-9-23,58.3,51.6,44.4,50.1,46.1,42.9,97,82,58,30.19,30.06,3,0,4,0.00
2013-9-24,78.1,52.0,38.7,63.9,46.0,38.4,99,83,38,30.22,29.99,2,0,3,0.00
2013-9-25,80.8,56.3,45.1,68.9,47.7,38.9,99,79,23,30.05,29.78,2,0,3,0.01
2013-9-26,82.0,57.5,45.9,55.6,48.3,37.6,99,78,21,30.16,30.00,3,0,4,0.00
2013-9-27,79.9,58.0,46.9,55.4,50.6,46.7,99,80,36,30.27,30.14,2,0,4,0.00
2013-9-28,79.9,59.1,47.5,71.4,51.5,47.2,99,80,39,30.33,29.72,4,0,6,0.00
2013-9-29,81.5,59.9,47.5,59.7,53.7,47.2,99,82,45,30.20,29.98,2,0,5,0.00
2013-9-30,72.0,60.9,52.7,61.2,57.1,51.9,99,88,63,30.08,29.97,3,0,4,0.00